Évènement client.

Quelques informations.

Évènementiel

Vous voulez faire vivre une expérience unique à vos collaborateurs, clients, fournisseurs ou partenaires ?

Nous sommes à l’écoute pour concevoir un évènement à votre image, votre évènement sur-mesure en France et en Europe.

Nous nous assurons du bon déroulement de vos évènements en coordonnant les différents intervenants : pilotes, mécaniciens, prestataires, terrains d’accueil…

ils l'ont fait

Autres prestations.

Initiation.
Formations.
METAR :

LFQA 290730Z AUTO 24006KT 9999 OVC009 06/05 Q1032


vue en direct sur l'aérodrome
mentions légales politique de confidentialité
Cochet Concept
cx